CZ-6A DEB, 61286

Orbit data source: Space-Track

CZ-6A DEB, 61286 is space debris in LEO originally from a launch on Tue, 06 Aug 2024 UTC launched from the Taiyaun Space Center, China (TSC). Debris objects in space refer to the collection of defunct objects orbiting the Earth. Examples of debris include non-operational satellites, rocket bodies, and fragments generated from explosions, collisions, or faulty payload assembly.

Loading next visibility...
Identifier
61286, 2024-140SX
Orbit
LEO
Country
Flag of CNCN / PRC
Related business
Manufacturer
SAST
Mission
Spacecraft
Bus & Motor
Unknown
Mass
Unknown
Launch date (UTC)
2024-08-06 (1 year ago)
Launch vehicle
Unknown
Launch site
Taiyaun Space Center, China (TSC)
Object type
Payload
Rocket body
Debris
Shape & HBR
Unknown shape, 1.1 m
Radar Cross Section
Small (<0.1 m²)

Expand to show TLE details & history
Last TLE update: 11 hours ago

TLE from 11 hours ago
0 CZ-6A DEB
1 61286U 24140SX  25354.81885316  .00002850  00000-0  15316-2 0  9996
2 61286  88.8656 288.2635 0102789  78.4341 282.8362 14.09979325 67647
Epoch: 2025-12-20T19:39Z
TLE epoch observation values (Epoch: 2025-12-20T19:39:08.913Z)
Latitude
0.00007°
Longitude
-96.16383°
Altitude
846.679 km
Speed
7.437 km/s
True Right ascension
19h 13m 03s
True Declination
0° 00' 00"
Sunlit
Object was in daylight at epoch
Visualization orbit readout
Latitude
Unknown
Longitude
Unknown
Altitude
Unknown
Speed
Unknown
Apparent Right ascension
Unknown
Apparent Declination
Unknown
Sunlit
N/A
Visualization observer readout
Local Sidereal Time
05:24:10
Azimuth
Unknown
Elevation
Unknown
Doppler factor
Unknown
Orbital elements
Apogee altitude
930.772 km
Perigee altitude
782.045 km
Semi-major axis
7,234.545 km
Eccentricity
0.01028
Inclination
88.8656°
RAAN
288.2635°
Arg. of periapsis
78.4341°
True anomaly
281.68455°
Mean anomaly
282.8362°
Eccentric anomaly
282.2607°
Mean motion
3.52717 °/min
Orbital period
102.06 mins
BSTAR
0.0015316
Loading maneuver chart data...
Computing Atmospheric mass density...
Loading historical data...
Loading historical data...
Loading historical data...
Loading historical data...
Loading historical data...
Loading historical data...
Loading historical data...

Documentation

Showing up to 5 results
|